Regional Weather Roundup
Issued by NWS

Home | Current Version | Previous Version | Text Only | Print | Product List | Glossary Off
Versions: 1 2 3 4 5 6 7 8 9 10 11 12 13 14 15 16 17 18 19 20 21 22 23 24 25 26 27 28 29 30 31 32 33 34 35 36 37 38 39 40 41 42 43 44 45 46 47 48 49 50

000
ASUS43 KFSD 040310
RWRSD

WEATHER ROUNDUP FOR SOUTH DAKOTA
NATIONAL WEATHER SERVICE SIOUX FALLS SD
900 PM CST SAT DEC 03 2016

NOTE: "FAIR" INDICATES FEW OR NO CLOUDS BELOW 12,000 FEET WITH NO
SIGNIFICANT WEATHER AND/OR OBSTRUCTIONS TO VISIBILITY.


SDZ001>005-009-010-012>017-040400-
NORTHWEST AND NORTH CENTRAL SOUTH DAKOTA

CITY           SKY/WX    TMP DP  RH WIND       PRES   REMARKS
BUFFALO          N/A     37  28  70 W23G33    29.79R
FAITH            N/A     30  26  85 SW13      29.85S WCI  20
MOBRIDGE       CLOUDY    31  23  72 S8        29.83F WCI  23
$$

SDZ012>016-024>037-041>051-057-063-072>074-040400-
SOUTHWEST AND SOUTH CENTRAL SOUTH DAKOTA

CITY           SKY/WX    TMP DP  RH WIND       PRES   REMARKS
RAPID CTY ARPT PTCLDY    27  20  75 W7        29.91R WCI  19
PIERRE         CLOUDY    29  22  75 SW6       29.89S WCI  23
CUSTER         LGT SNOW  25  20  81 W9G18     29.89R WCI  15
ELLSWORTH AFB  MOCLDY    29  22  74 W8        29.89S WCI  21
PHILIP         PTCLDY    30  24  78 NW3       29.91R
PINE RIDGE     CLEAR     26  19  74 CALM      29.95R
SPEARFISH      CLOUDY    36  25  64 W16G29    29.90R
WINNER         FAIR      29  22  75 SW8       29.93S WCI  21
$$

SDZ004>011-016>023-039-040-040400-
NORTHEAST SOUTH DAKOTA

CITY           SKY/WX    TMP DP  RH WIND       PRES   REMARKS
ABERDEEN       CLOUDY    34  31  88 S16       29.91F WCI  24
WATERTOWN      CLOUDY    33  32  96 S15G25    29.95F WCI  23
BROOKINGS      CLOUDY    33  31  92 S16G23    29.98F FOG     WCI  23
SISSETON         N/A     34  32  92 S14       29.95F WCI  25
$$

SDZ017-020-022-023-036>040-048>070-040400-
SOUTHEAST SOUTH DAKOTA

CITY           SKY/WX    TMP DP  RH WIND       PRES   REMARKS
SIOUX FALLS    CLOUDY    34  33  96 S16       30.03F FOG     WCI  24
HURON          CLOUDY    35  33  92 S13       29.93F WCI  26
CHAMBERLAIN    PTCLDY    31  27  84 W6        29.92R WCI  26
MITCHELL       CLOUDY    36  33  89 S16       29.97F
YANKTON        CLOUDY    36  30  80 S17       30.03S
$$

ABBREVIATIONS USED IN REMARKS
   TC - TEMPERATURE IN CELSIUS
  WCI - WIND CHILL INDEX
   HX - HEAT INDEX
  VSB - VISIBILITY




USA.gov is the U.S. government's official web portal to all federal, state and local government web resources and services.